Regional Weather Roundup
Issued by NWS Albany, NY

Home | Current Version | Previous Version | Text Only | Print | Product List | Glossary On
Versions: 1 2 3 4 5 6 7 8 9 10 11 12 13 14 15 16 17 18 19 20 21 22 23 24 25 26 27 28 29 30 31 32 33 34 35 36 37 38 39 40 41 42 43 44 45 46 47 48 49 50
000
ASUS41 KALY 260410
RWRALY

NEW YORK STATE HOURLY WEATHER ROUNDUP
NATIONAL WEATHER SERVICE ALBANY NY
1100 PM EST SUN JAN 25 2015

NOTE: "FAIR" INDICATES FEW OR NO CLOUDS BELOW 12,000 FEET WITH NO
SIGNIFICANT WEATHER AND/OR NO OBSTRUCTIONS TO VISIBILITY.

NYZ032-033-038>043-046>054-057>066-NYZ062>081-260500-
EAST


CITY           SKY/WX    TMP DP  RH WIND       PRES   REMARKS
ALBANY         MOCLDY    14   0  53 NE6       30.08R WCI   5
GLENS FALLS    PTCLDY    11  -3  53 N7        30.07R WCI   0
POUGHKEEPSIE   MOCLDY    20   2  45 N6        30.05R WCI  12
NEWBURGH       PTCLDY    19   9  63 E12       30.02R WCI   7
MONTGOMERY     MOCLDY    21   5  50 NE7       30.01R WCI  12
WHITE PLAINS   CLOUDY    25   6  44 N12       29.97R WCI  14
ISLIP          CLOUDY    31  13  47 N10       29.98R WCI  22
NEW YORK CITY  CLOUDY    31  12  45 N12       29.99R WCI  22
CENTRAL PARK   CLOUDY    32   9  38 N13       30.00R WCI  22
$$

NYZ005>009-017-018-044>046-055-056-260500-
CENTRAL


CITY           SKY/WX    TMP DP  RH WIND       PRES   REMARKS
FULTON         PTCLDY     0  -5  79 CALM      30.07R
SYRACUSE       PTCLDY     7   0  73 E3        30.07R
ROME           PTCLDY     1  -5  75 SE5       30.10R WCI  -9
ELMIRA         CLOUDY    15   8  73 NE12      30.00R WCI   2
BINGHAMTON     MOCLDY     8   1  73 NE7       29.94R WCI  -3
MONTICELLO     MOCLDY    16   7  67 N7        29.94R WCI   6
$$

NYZ026>034-041>043-260500-
NORTH


CITY           SKY/WX    TMP DP  RH WIND       PRES   REMARKS
WATERTOWN      MOCLDY     3  -7  63 E7        30.10S WCI  -9
FORT DRUM      NOT AVBL
MASSENA        PTCLDY    -4  -9  79 CALM      30.15R
SARANAC LAKE   MOCLDY   -17 -20  86 CALM      29.95S
PLATTSBURGH    PTCLDY     3  -4  72 SE5       30.10S WCI  -6
$$

NYZ001>004-010>016-019>021-260500-
WEST


CITY           SKY/WX    TMP DP  RH WIND       PRES   REMARKS
NIAGARA FALLS  MOCLDY    13   6  74 NE3       30.02S
BUFFALO        MOCLDY    14   5  67 E8        30.01S WCI   3
DUNKIRK        CLOUDY    14   7  73 NE14      29.99S WCI  -1
JAMESTOWN      CLOUDY    12   3  67 NE9       29.85F WCI   0
WELLSVILLE     CLOUDY    11   4  73 E7        29.89R WCI   0
ROCHESTER      MOCLDY     9   4  80 CALM      30.04S
PENN YAN       MOCLDY    10   5  80 CALM      30.02R
$$

             KEY
       WCI = WIND CHILL INDEX
       VSB = VISIBILITY
       HX  = HEAT INDEX
$$



USA.gov is the U.S. government's official web portal to all federal, state and local government web resources and services.